Palma de Mallorca, Spain

8:25 AM CEST on October 19, 2017 (GMT +0200)
Palma De Mallorca

Weather History for LEPA - July, 2013

Change the Weather History Date:

Friday, July 19, 2013

  Actual Average Record
Temperature  
Mean Temperature 82 °F -  
Max Temperature 95 °F 86 °F 98 °F (1998)
Min Temperature 68 °F 65 °F 57 °F (2016)
Cooling Degree Days 16    
Growing Degree Days 32 (Base 50)    
Moisture  
Dew Point 65 °F    
Average Humidity 60    
Maximum Humidity 88    
Minimum Humidity 28    
Precipitation  
Precipitation 0.00 in 0.02 in - ()
Sea Level Pressure  
Sea Level Pressure 30.02 in    
Wind  
Wind Speed 4 mph ()    
Max Wind Speed 16 mph    
Max Gust Speed -    
Visibility 7.9 miles    
Events      
Averages and records for this station are not official NWS values.
T = Trace of Precipitation, MM = Missing Value Source: Averaged Metar Reports

Daily Weather History Graph

Daily Weather History Graph

Search for Another Location

Airport or City:

Trip Planner

Search our weather history database for the weather conditions in past years. The results will help you decide how hot, cold, wet, or windy it might be!

Date:

Astronomy

Jul. 19, 2013 Rise Set
Actual Time 6:37 AM CEST 9:13 PM CEST
Civil Twilight 6:06 AM CEST 9:44 PM CEST
Nautical Twilight 5:27 AM CEST 10:22 PM CEST
Astronomical Twilight 4:43 AM CEST 11:06 PM CEST
Moon 5:59 PM CEST 3:04 AM CEST
Length of Visible Light 15h 38m
Length of Day
14h 35m
Waxing Gibbous, 84% of the Moon is Illuminated
Jul 19
Waxing Gibbous
Jul 22
Full
Jul 29
Last Quarter
Aug 6
New
Aug 14
First Quarter

Hourly Weather History & Observations

Time (CEST) Temp. Heat Index Dew Point Humidity Pressure Visibility Wind Dir Wind Speed Gust Speed Precip Events Conditions
12:00 AM 75.2 °F - 69.8 °F 83% 30.09 in 6.2 mi Calm Calm - N/A   Partly Cloudy
12:30 AM 77.0 °F - 69.8 °F 78% 30.09 in - ESE 2.3 mph - N/A   Clear
1:00 AM 73.4 °F - 68.0 °F 83% 30.06 in - Calm Calm - N/A   Clear
1:30 AM 73.4 °F - 68.0 °F 83% 30.09 in - NNE 1.2 mph - N/A   Clear
2:00 AM 73 °F - 68 °F 79% 30.08 in 12 mi Calm Calm - -   Clear
2:00 AM 73.4 °F - 68.0 °F 83% 30.06 in - Calm Calm - N/A   Clear
2:30 AM 71.6 °F - 68.0 °F 88% 30.06 in - Variable 2.3 mph - N/A   Clear
3:00 AM 71.6 °F - 66.2 °F 83% 30.06 in - NE 1.2 mph - N/A   Clear
3:30 AM 71.6 °F - 66.2 °F 83% 30.06 in - ENE 5.8 mph - N/A   Clear
4:00 AM 71.6 °F - 68.0 °F 88% 30.06 in - Variable 1.2 mph - N/A   Clear
4:30 AM 71.6 °F - 66.2 °F 83% 30.04 in 6.2 mi NE 1.2 mph - N/A   Partly Cloudy
5:00 AM 69.8 °F - 66.2 °F 88% 30.04 in 6.2 mi Variable 2.3 mph - N/A   Partly Cloudy
5:30 AM 69.8 °F - 66.2 °F 88% 30.04 in 6.2 mi North 3.5 mph - N/A   Partly Cloudy
6:00 AM 69.8 °F - 66.2 °F 88% 30.04 in 6.2 mi NNE 3.5 mph - N/A   Partly Cloudy
6:30 AM 69.8 °F - 66.2 °F 88% 30.04 in 6.2 mi Variable 1.2 mph - N/A   Partly Cloudy
7:00 AM 69.8 °F - 64.4 °F 83% 30.04 in - Variable 2.3 mph - N/A   Clear
7:30 AM 69.8 °F - 66.2 °F 88% 30.04 in - Variable 2.3 mph - N/A   Clear
8:00 AM 74 °F - 68 °F 75% 30.05 in 16 mi Calm Calm - -   Scattered Clouds
8:00 AM 73.4 °F - 68.0 °F 83% 30.04 in - Variable 2.3 mph - N/A   Clear
8:30 AM 77.0 °F - 68.0 °F 74% 30.04 in - Variable 2.3 mph - N/A   Clear
9:00 AM 78.8 °F - 68.0 °F 69% 30.04 in 6.2 mi NE 4.6 mph - N/A   Partly Cloudy
9:30 AM 82.4 °F 84.6 °F 66.2 °F 58% 30.04 in 6.2 mi NE 4.6 mph - N/A   Partly Cloudy
10:00 AM 84.2 °F 85.0 °F 62.6 °F 48% 30.04 in 6.2 mi NNE 3.5 mph - N/A   Partly Cloudy
10:30 AM 86.0 °F 87.3 °F 64.4 °F 48% 30.04 in - NNE 3.5 mph - N/A   Clear
11:00 AM 87.8 °F 88.5 °F 62.6 °F 43% 30.04 in - West 1.2 mph - N/A   Clear
11:30 AM 89.6 °F 89.5 °F 60.8 °F 38% 30.04 in - South 2.3 mph - N/A   Clear
12:00 PM 91.4 °F 92.1 °F 62.6 °F 38% 30.04 in 6.2 mi SW 8.1 mph - N/A   Partly Cloudy
12:30 PM 87.8 °F 90.4 °F 66.2 °F 49% 30.04 in 6.2 mi SW 11.5 mph - N/A   Partly Cloudy
1:00 PM 87.8 °F 91.4 °F 68.0 °F 52% 30.04 in 6.2 mi SW 11.5 mph - N/A   Partly Cloudy
1:30 PM 87.8 °F 92.6 °F 69.8 °F 55% 30.04 in 6.2 mi WSW 12.7 mph - N/A   Partly Cloudy
2:00 PM 88 °F - 70 °F 46% 30.03 in 19 mi WSW 16.1 mph - -   Scattered Clouds
2:00 PM 87.8 °F 93.8 °F 71.6 °F 58% 30.04 in 6.2 mi West 12.7 mph - N/A   Partly Cloudy
2:30 PM 89.6 °F 94.7 °F 69.8 °F 52% 30.01 in 6.2 mi West 10.4 mph - N/A   Partly Cloudy
3:00 PM 91.4 °F 94.0 °F 66.2 °F 43% 30.01 in 6.2 mi West 3.5 mph - N/A   Partly Cloudy
3:30 PM 93.2 °F 94.9 °F 64.4 °F 38% 30.01 in 6.2 mi ESE 8.1 mph - N/A   Partly Cloudy
4:00 PM 93.2 °F 93.3 °F 60.8 °F 34% 30.01 in 6.2 mi SE 11.5 mph - N/A   Partly Cloudy
4:30 PM 93.2 °F 92.6 °F 59.0 °F 32% 29.98 in 6.2 mi SSE 11.5 mph - N/A   Partly Cloudy
5:00 PM 95.0 °F 94.4 °F 59.0 °F 30% 29.98 in 6.2 mi SSE 11.5 mph - N/A   Partly Cloudy
5:30 PM 93.2 °F 91.9 °F 57.2 °F 30% 29.98 in - SSE 9.2 mph - N/A   Clear
6:00 PM 93.2 °F 91.9 °F 57.2 °F 30% 29.95 in - SSE 6.9 mph - N/A   Clear
6:30 PM 93.2 °F 92.6 °F 59.0 °F 32% 29.95 in - SE 10.4 mph - N/A   Clear
7:00 PM 91.4 °F 90.7 °F 59.0 °F 34% 29.95 in - SSE 11.5 mph - N/A   Clear
7:30 PM 89.6 °F 88.9 °F 59.0 °F 36% 29.95 in - SE 10.4 mph - N/A   Clear
8:00 PM 89 °F - 60 °F 28% 29.97 in 19 mi SSE 9.2 mph - -   Scattered Clouds
8:00 PM 87.8 °F 87.1 °F 59.0 °F 38% 29.98 in - SE 8.1 mph - N/A   Clear
8:30 PM 87.8 °F 87.6 °F 60.8 °F 40% 29.98 in - SE 6.9 mph - N/A   Clear
9:00 PM 86.0 °F 86.6 °F 62.6 °F 45% 29.98 in - ESE 5.8 mph - N/A   Clear
9:30 PM 82.4 °F 83.4 °F 62.6 °F 51% 29.95 in - East 4.6 mph - N/A   Clear
10:00 PM 80.6 °F 81.8 °F 62.6 °F 54% 29.98 in - NE 6.9 mph - N/A   Clear
10:30 PM 78.8 °F - 64.4 °F 61% 30.01 in - ENE 4.6 mph - N/A   Clear
11:00 PM 78.8 °F - 66.2 °F 65% 30.01 in - ENE 6.9 mph - N/A   Clear
11:30 PM 77.0 °F - 64.4 °F 65% 30.01 in - ENE 3.5 mph - N/A   Clear